STARLINK-38145, 100528

Orbit data source: Space-Track

STARLINK-38145, 100528 is a payload satellite owned by SpaceX/Seattle (US) in LEO that was launched on Wed, 26 Aug 2026 UTC launched from the Air Force Western Test Range (AFWTR). Payload-class satellites include a variety of spacecraft equipped with specific instruments for various scientific and technological missions. These include communications satellites like Starlink; space stations such as the ISS; scientific satellites like the Hubble; Earth observation satellites from companies like Planet Labs, Umbra, and HawkEye 360; GPS; miniature CubeSats for education and research; and military/defense satellites.

Loading next visibility...
Identifier
100528, 2026-197AC
Orbit
LEO
Country
Flag of USUS
Related business
Manufacturer
SpaceX/Seattle
Mission
Operational spacecraft
Bus & Motor
STARLINK V2MO, Unknown motor
Mass
575 kg wet, ~530 kg dry
Launch date (UTC)
2026-08-26 (4 weeks ago)
Launch vehicle
Unknown
Launch site
Air Force Western Test Range (AFWTR)
Object type
Payload
Rocket body
Debris
Shape & HBR
BOX + PAN, 17.7 m
Radar Cross Section
Large (>1 m²)

Expand to show TLE details & history
Last TLE update: 19 hours ago

TLE from 19 hours ago
0 STARLINK-38145
1 A0528U 26197AC  26262.86807585  .00164177  00000-0  96522-3 0  9998
2 A0528  69.9985 123.7039 0003329 281.0575  79.0250 15.77606149  3881
Epoch: 2026-09-19T20:50Z
TLE epoch observation values (Epoch: 2026-09-19T20:50:01.753Z)
Latitude
-0.00003°
Longitude
172.42614°
Altitude
339.309 km
Speed
7.706 km/s
True Right ascension
08h 14m 48s
True Declination
0° 00' 00"
Sunlit
Object was in daylight at epoch
Visualization orbit readout
Latitude
Unknown
Longitude
Unknown
Altitude
Unknown
Speed
Unknown
Apparent Right ascension
Unknown
Apparent Declination
Unknown
Sunlit
N/A
Visualization observer readout
Local Sidereal Time
09:03:26
Azimuth
Unknown
Elevation
Unknown
Doppler factor
Unknown
Orbital elements
Apogee altitude
337.337 km
Perigee altitude
332.867 km
Semi-major axis
6,713.239 km
Eccentricity
0.00033
Inclination
69.9985°
RAAN
123.7039°
Arg. of periapsis
281.0575°
True anomaly
79.06245°
Mean anomaly
79.025°
Eccentric anomaly
79.04373°
Mean motion
3.94589 °/min
Orbital period
91.23 mins
BSTAR
0.00096522
Loading maneuver chart data...
Computing Atmospheric mass density...
Loading historical data...
Loading historical data...
Loading historical data...
Loading historical data...
Loading historical data...
Loading historical data...
Loading historical data...

Documentation

Showing up to 5 results
|